Location: Kermapucano
(48.0667°N, 3.3000°W)
Time: 20:48:36
(UTC+00:00)

Cosmos 2263 Rocket - Pass Details

Date: 29 November 2020
Orbit: 823 x 848 km, 71.0° (Epoch: 25 January)

Event Time Altitude Azimuth Distance (km) Brightness Sun altitude
Exits shadow 06:24:26 17° 292° (WNW) 2,050 3.5 -12.2°
Maximum altitude 06:26:32 20° 320° (NW) 1,876 3.5 -11.9°
Drops below altitude 10° 06:30:38 10° 6° (N) 2,484 4.5 -11.2°
Sets 06:33:49 0° 23° (NNE) 3,424 5.4 -10.7°
